OMD673 KORD-KVCV

Flight info

Callsign OMD673
Flight time N/A
Altitude 38000
Route MYKIE MONNY IANNA FOD ONL J148 CYS EKR J100 BCE J60 HEC
Aircraft A320/M-SDE3FGHIRWY/LB1

Departure

Time 2026-05-07 17:01
Airport Chicago O'Hare International Airport (KORD)

Arrival

Time N/A
Airport Southern California Logistics Airport (KVCV)
Time Latitude Longitude Altitude Speed Heading
2026-05-07 16:41 41.99160 -87.91088 655 ft 0 kts 310°
2026-05-07 16:54 41.99162 -87.91090 655 ft 3 kts 307°
2026-05-07 16:55 41.99173 -87.91135 655 ft 6 kts 278°
2026-05-07 16:55 41.99174 -87.91207 656 ft 8 kts 261°
2026-05-07 16:55 41.99136 -87.91281 657 ft 10 kts 224°
2026-05-07 16:55 41.99069 -87.91366 659 ft 13 kts 221°
2026-05-07 16:56 41.98995 -87.91360 659 ft 13 kts 110°
2026-05-07 16:56 41.98996 -87.91218 656 ft 16 kts 90°
2026-05-07 16:56 41.98995 -87.90887 655 ft 18 kts 90°
2026-05-07 16:57 41.98994 -87.90717 655 ft 18 kts 90°
2026-05-07 16:57 41.98995 -87.90546 655 ft 18 kts 89°
2026-05-07 16:57 41.98994 -87.90350 655 ft 22 kts 91°
2026-05-07 16:57 41.98994 -87.90141 655 ft 22 kts 90°
2026-05-07 16:58 41.98994 -87.89932 655 ft 21 kts 88°
2026-05-07 16:58 41.98996 -87.89730 655 ft 21 kts 90°
2026-05-07 16:58 41.98994 -87.89528 652 ft 22 kts 90°
2026-05-07 16:58 41.98995 -87.89317 652 ft 21 kts 88°
2026-05-07 16:59 41.98996 -87.89136 652 ft 15 kts 91°
2026-05-07 16:59 41.98970 -87.89050 652 ft 10 kts 150°
2026-05-07 16:59 41.98880 -87.89042 652 ft 15 kts 181°
2026-05-07 16:59 41.98769 -87.89043 652 ft 16 kts 179°
2026-05-07 17:00 41.98648 -87.89044 652 ft 18 kts 180°
2026-05-07 17:00 41.98522 -87.89040 652 ft 18 kts 179°
2026-05-07 17:00 41.98412 -87.89042 652 ft 15 kts 194°
2026-05-07 17:00 41.98388 -87.89205 652 ft 29 kts 271°
2026-05-07 17:01 41.98388 -87.89854 658 ft 107 kts 270°
2026-05-07 17:01 41.98393 -87.91128 818 ft 153 kts 269°
2026-05-07 17:01 41.98376 -87.92585 1489 ft 162 kts 267°
2026-05-07 17:01 41.98323 -87.94078 2302 ft 167 kts 265°
2026-05-07 17:02 41.98245 -87.95667 3002 ft 180 kts 265°
2026-05-07 17:02 41.98180 -87.97466 3529 ft 208 kts 270°
2026-05-07 17:02 41.98403 -87.99493 4214 ft 231 kts 286°
2026-05-07 17:02 41.99085 -88.01502 5024 ft 246 kts 297°
2026-05-07 17:03 41.99938 -88.03524 5942 ft 255 kts 294°
2026-05-07 17:03 42.00631 -88.05711 6923 ft 258 kts 288°
2026-05-07 17:03 42.01192 -88.07938 8084 ft 257 kts 287°
2026-05-07 17:03 42.01722 -88.10183 9250 ft 254 kts 284°
2026-05-07 17:04 42.02185 -88.12476 10149 ft 260 kts 283°
2026-05-07 17:04 42.02557 -88.14825 10838 ft 262 kts 276°
2026-05-07 17:04 42.02610 -88.17294 11738 ft 266 kts 270°
2026-05-07 17:04 42.02540 -88.19761 12662 ft 268 kts 269°
2026-05-07 17:05 42.02457 -88.22245 13547 ft 269 kts 272°
2026-05-07 17:05 42.02798 -88.24671 14413 ft 270 kts 287°
2026-05-07 17:05 42.03413 -88.27059 15280 ft 272 kts 289°
2026-05-07 17:05 42.04046 -88.29443 16115 ft 274 kts 288°
2026-05-07 17:06 42.04659 -88.31827 16945 ft 275 kts 288°
2026-05-07 17:06 42.05273 -88.34280 17708 ft 278 kts 287°
2026-05-07 17:06 42.05872 -88.36716 18437 ft 280 kts 287°
2026-05-07 17:06 42.06480 -88.39233 19170 ft 283 kts 287°
2026-05-07 17:07 42.07084 -88.41750 19869 ft 286 kts 287°
2026-05-07 17:07 42.07688 -88.44290 20559 ft 288 kts 287°
2026-05-07 17:07 42.08297 -88.46851 21218 ft 291 kts 287°
2026-05-07 17:07 42.08911 -88.49437 21859 ft 293 kts 287°
2026-05-07 17:08 42.09529 -88.52045 22516 ft 294 kts 287°
2026-05-07 17:08 42.10146 -88.54656 23105 ft 297 kts 287°
2026-05-07 17:08 42.10770 -88.57310 23579 ft 303 kts 287°
2026-05-07 17:08 42.11407 -88.60023 24120 ft 306 kts 287°
2026-05-07 17:09 42.12055 -88.62775 24654 ft 308 kts 287°
2026-05-07 17:09 42.12698 -88.65513 25202 ft 309 kts 286°
2026-05-07 17:09 42.13337 -88.68243 25760 ft 309 kts 286°
2026-05-07 17:09 42.13995 -88.71052 26270 ft 311 kts 286°
2026-05-07 17:10 42.14643 -88.73826 26736 ft 313 kts 286°
2026-05-07 17:10 42.15293 -88.76625 27170 ft 315 kts 285°
2026-05-07 17:10 42.15802 -88.79490 27633 ft 316 kts 280°
2026-05-07 17:10 42.16093 -88.82426 28097 ft 317 kts 275°